User: anonymous   Login
Location: Sobotiste
(48.7170°N, 17.4000°E)
Time: 12:12:34
(UTC+01:00)
Language:

YUBILEINY - Orbit

View from above orbital plane
View from above orbital plane
View from above satellite
View from above satellite

Ground track
Ground track

The orbit is defined by the following mean orbital elements,

1 32953U          26073.93895712 +.00000000 +00000-0 +56666-3 0 00009
2 32953  82.5006  54.0562 0019715 153.8663 206.3416 12.43176404    06
Epoch (UTC): 14 March 2026 22:32:05
Eccentricity: 0.0019715
inclination: 82.5006°
perigee height: 1478 km
apogee height: 1509 km
right ascension of ascending node: 54.0562°
argument of perigee: 153.8663°
revolutions per day: 12.43176404
mean anomaly at epoch: 206.3416°

The dashed part of the orbit path shows where the satellite is in the earth's shadow,  

DLR